Regional Weather Roundup
Issued by NWS

Home | Current Version | Previous Version | Graphics & Text | Print | Product List | Glossary On
Versions: 1 2 3 4 5 6 7 8 9 10 11 12 13 14 15 16 17 18 19 20 21 22 23 24 25 26 27 28 29 30 31 32 33 34 35 36 37 38 39 40 41 42 43 44 45 46 47 48
000
ASUS45 KBOU 241410
RWRCO

WEATHER ROUNDUP FOR COLORADO
NATIONAL WEATHER SERVICE PUEBLO CO
700 AM MST SAT FEB 24 2018

NOTE: "FAIR" INDICATES FEW OR NO CLOUDS BELOW 12000 FEET WITH NO
SIGNIFICANT WEATHER AND/OR OBSTRUCTIONS TO VISIBILITY.

COZ001>005-013-030-031-241500-
...NORTHWEST COLORADO...

CITY           SKY/WX    TMP DP  RH WIND       PRES   REMARKS
CRAIG          CLEAR      1  -3  83 CALM      29.98R
HAYDEN         MOCLDY     9   0  67 NW8       29.96R WCI  -3
MEEKER         LGT SNOW  14   8  77 CALM      29.96R
RABBIT EARS PA NOT AVBL
STEAMBOAT SPGS MOCLDY     8   1  74 CALM      29.92S
WALDEN         FAIR       3  -6  66 CALM      29.80R
$$

COZ006>008-011-241500-
...WEST CENTRAL VALLEYS...

CITY           SKY/WX    TMP DP  RH WIND       PRES   REMARKS
GRAND JUNCTION MOCLDY    20  13  74 CALM      30.06R
MONTROSE       CLEAR      7   4  87 S7        30.06R WCI  -5
EAGLE          PTCLDY    16   7  67 SW9       29.95R WCI   4
RIFLE          CLOUDY    20  15  81 W6        30.00R WCI  12
DELTA          NOT AVBL
NUCLA          FOG       14  10  85 E3        30.09R VSB 1/4
$$

COZ017>023-064>068-241500-
...SOUTHWEST COLORADO...

CITY           SKY/WX    TMP DP  RH WIND       PRES   REMARKS
DURANGO        CLEAR     11   8  88 SW5       29.97R WCI   3
CORTEZ         CLEAR      6   3  87 NE7       30.06R WCI  -6
PAGOSA SPRINGS FLURRIES  15  14  93 CALM      29.92R
TELLURIDE      FLURRIES   8   6  90 W5        29.91R WCI   0
WOLF CREEK PAS CLOUDY    -2  -4  92 SW7       29.79R WCI -16
$$

COZ009-010-012-014-032>034-037-058>063-241500-
...CENTRAL COLORADO...

CITY           SKY/WX    TMP DP  RH WIND       PRES   REMARKS
ASPEN          MOCLDY    11   6  81 N8        29.85R WCI  -1
BUENA VISTA    CLOUDY    15   0  51 NW6       29.79R WCI   6
COPPER MTN     CLOUDY     1  -6  71 W20G35    29.63R WCI -20
BERTHOUD PASS  SNOW      -9 -20  59 NW35G46   29.51S VSB 1/4 WCI -40
COTTONWOOD PAS CLOUDY    14   3  62 NW9G21    29.71R HAZE    WCI   2
GUNNISON       CLEAR     14   5  67 SW15      29.88R WCI  -1
KREMMLING      CLEAR     14  -2  48 SW8       29.89R WCI   3
LEADVILLE      CLOUDY     4  -3  73 NW14G24   29.73R HAZE    WCI -14
MONARCH PASS   CLOUDY     0  -6  78 W41G59    29.71R WCI -30
SALIDA         FAIR      20   1  44 W16       29.88R WCI   5
SUNLIGHT       SNOW     N/A N/A N/A W7        29.80R VSB 1/2
WILKERSON PASS CLEAR      1  -8  66 NW9G21    29.65F WCI -14
$$

COZ069>075-241500-
...SAN LUIS VALLEY/SANGRE DE CRISTO MOUNTAINS...

CITY           SKY/WX    TMP DP  RH WIND       PRES   REMARKS
ALAMOSA        CLEAR     13   5  70 W8        29.84R WCI   2
DEL NORTE      FAIR      13  -3  50 W10       29.84R WCI  -1
LA VETA PASS   PTCLDY     7   0  72 W15G24    29.81R WCI -11
SAGUACHE       CLEAR     10   1  67 NW9       29.83R WCI  -2
$$

COZ035-036-038>040-241500-
...NORTHERN COLORADO FRONT RANGE...

CITY           SKY/WX    TMP DP  RH WIND       PRES   REMARKS
DENVER INTL AP PTCLDY    21  18  88 W5        29.79R FOG     WCI  15
DMNS CITY PARK NOT AVBL
AURORA         PTCLDY    18  17  98 W10       29.79R WCI   6
FRONT RANGE AP FAIR      21  20  93 SW10      29.79S FOG     WCI  10
ERIE MUNI ARPT MOCLDY    16  14  93 SW6       29.86S FOG     WCI   7
BOULDER MUN AP FAIR      23   7  50 W14G20    29.80R WCI  11
CENTENNIAL     PTCLDY    15  14  95 S3        29.78R
BROOMFIELD     PTCLDY    21   7  53 MISG      29.79R
LOVELAND       CLEAR     17  15  92 CALM      29.81S FOG
LONGMONT       FOG       13  10  86 SW3       29.82F VSB 1
$$

COZ041-046-047-076>085-087-088-241500-
...PIKES PEAK/PALMER DIVIDE AND SOUTHERN FOOTHILLS...

CITY           SKY/WX    TMP DP  RH WIND       PRES   REMARKS
COLO. SPRINGS  PTCLDY    19  16  88 CALM      29.78S
A. F. ACADEMY  PTCLDY    15  12  87 NE6       29.74S WCI   7
SCHRIEVER AFB  NOT AVBL
CHEYENNE MTN   NOT AVBL
ELLICOTT         N/A    N/A N/A N/A S3        29.75S
FALCON         FAIR      15  13  92 MISG      29.76R
FORT CARSON    PTCLDY    20  17  85 S3        29.78R
LIMON          MOCLDY    16  15  96 NW7       29.78S WCI   6
MONUMENT HILL  CLEAR     14  12  92 NW6       29.75S FOG     WCI   5
CANON CITY     CLEAR     21  18  86 W10       29.80R WCI  10
WALSENBURG     FAIR      27  10  50 W15       29.80R WCI  15
TRINIDAD       CLEAR     16  14  92 W10       29.80R WCI   4
$$

COZ042>045-048>051-090-091-241500-
...NORTHEAST COLORADO...

CITY           SKY/WX    TMP DP  RH WIND       PRES   REMARKS
GREELEY ARPT   CLOUDY    20  19  96 W7        29.82S FOG     WCI  11
AKRON          CLOUDY    23  21  92 W9        29.78R WCI  13
BURLINGTON     CLOUDY    25  24  96 SW15      29.79F WCI  13
WRAY           CLOUDY    27  27 100 CALM      29.82F
YUMA           NOT AVBL
STERLING       CLOUDY    27  23  86 W6        29.80S WCI  20
HOLYOKE        CLOUDY    25  21  86 CALM      29.81F
FORT MORGAN    FAIR      20  19  93 W3        29.81S FOG
$$

COZ086-089-092>099-241500-
...SOUTHEAST COLORADO...

CITY           SKY/WX    TMP DP  RH WIND       PRES   REMARKS
PUEBLO         MOCLDY    24  22  91 E5        29.83R FOG     WCI  18
LA JUNTA       CLOUDY    27  25  92 NW7       29.84R WCI  19
LAMAR          CLOUDY    26  24  92 SE3       29.81F FOG
SPRINGFIELD      N/A     24  24 100 VRB7      29.81R WCI  16
$$





USA.gov is the U.S. government's official web portal to all federal, state and local government web resources and services.